#timestamp,LO_Frequency,Hit,StdDev 
1570348815.5,286047008.4,N
1570348835.3,286047008.9,N
1570348855.2,286047006.8,N
1570348875.0,286047007.7,N
1570348875.9,286047007.7,N
1570348895.8,286047007.8,N
1570348915.6,286047008.4,N
1570348935.4,286047008.5,N
1570348955.3,286047009.2,N
1570348975.1,286047008.1,N
1570348995.8,286047008.0,N
1570349015.7,286047008.3,N
1570349035.5,286047009.2,N
1570349055.4,286047007.3,N
1570349075.2,286047006.7,N
1570349095.0,286047007.1,N
1570349095.9,286047007.1,N
1570349115.8,286047009.1,Y
1570349135.6,286046998.2,P
1570349155.4,286047000.8,N
1570349175.3,286047000.7,N
1570349195.1,286047001.1,N
1570349215.9,286046998.7,N
1570349235.7,286047000.8,N
1570349255.5,286046998.6,N
1570349275.4,286046999.4,N
1570349295.2,286046997.4,N
1570349315.0,286046995.5,N
1570349316.0,286046995.5,N
1570349335.8,286046996.4,N
1570349355.6,286046996.1,N
1570349375.5,286046995.0,N
1570349395.3,286046997.4,N
1570349415.6,286046997.2,N
1570349435.4,286046997.5,N
1570349455.2,286046995.1,N
1570349475.1,286046995.3,N
1570349476.0,286046995.3,N
1570349495.8,286046995.2,N
1570349515.7,286046999.3,N
1570349535.5,286047002.6,N
1570349555.3,286047005.2,N
1570349575.2,286047009.6,N
1570349595.0,286047013.2,Y
1570349595.9,286047013.2,P
1570349615.8,286047014.2,N
1570349635.6,286047019.2,N
1570349655.3,286047018.8,N
1570349675.2,286047012.8,N
1570349695.0,286047009.4,N
1570349715.1,286047007.2,N
1570349735.9,286047005.0,N
1570349755.7,286047004.9,N
1570349775.6,286047005.8,N
1570349795.4,286047003.9,N
1570349815.2,286047001.5,N
1570349835.1,286047002.7,N
1570349836.0,286047002.7,N
1570349855.8,286047002.2,N
1570349875.7,286047001.9,N
1570349895.5,286047002.6,N
1570349915.3,286047001.6,N
1570349935.2,286047002.4,N
1570349955.9,286047001.2,N
1570349975.7,286046999.1,N
1570349995.6,286046999.1,N
1570350015.4,286046997.7,N
1570350035.3,286046994.9,N
1570350055.1,286046997.5,N
1570350056.0,286046997.5,N
1570350075.8,286046995.6,N
1570350095.7,286046995.5,N
1570350115.5,286046997.9,N
1570350135.4,286046997.6,N
1570350155.2,286046996.6,N
1570350175.0,286046997.1,N
1570350175.9,286046997.1,N
1570350195.8,286046999.2,N
1570350215.6,286046996.5,N
1570350235.5,286046999.5,N
1570350255.3,286046999.4,N
1570350275.1,286046999.1,N
1570350295.9,286046998.8,N
1570350315.7,286046996.6,N
1570350335.5,286046996.9,N
1570350355.4,286046999.6,N
1570350375.2,286046996.6,N
1570350395.1,286046996.6,N
1570350396.0,286046996.6,N
1570350415.8,286046996.9,N
1570350435.6,286047003.0,N
1570350455.5,286047003.4,N
1570350475.3,286047003.6,N
1570350495.1,286047001.5,N
1570350515.9,286047002.4,N
1570350535.7,286046998.2,N
1570350555.6,286047000.4,N
1570350575.4,286047002.6,N
1570350595.2,286047000.2,N
1570350615.1,286046999.9,N
1570350616.0,286046999.9,N
1570350635.8,286047000.3,N
1570350655.7,286047002.7,N
1570350675.5,286047000.3,N
1570350695.3,286047000.1,N
1570350715.2,286047000.2,N
1570350735.0,286047000.5,N
1570350735.9,286047000.5,N
1570350755.8,286047000.0,N
1570350775.6,286047000.2,N
1570350795.4,286046999.8,N
1570350815.3,286047000.0,N
1570350835.1,286046999.9,N
1570350855.9,286047001.6,N
1570350875.7,286047007.2,Y
1570350895.5,286047003.0,P
1570350915.4,286047002.1,N
1570350935.2,286047002.4,N
1570350955.0,286047001.1,N
1570350955.9,286047001.1,N
1570350975.8,286047001.0,N
1570350995.6,286046998.2,N
1570351015.5,286047000.7,N
1570351035.3,286047001.0,N
1570351055.1,286047002.7,N
1570351075.9,286047002.6,N
1570351095.7,286047004.4,Y
1570351115.6,286047002.4,P
1570351135.4,286047001.2,N
1570351155.3,286046999.4,N
1570351175.1,286046997.0,N
1570351176.0,286046997.0,N
1570351195.8,286046999.5,N
1570351215.7,286046999.3,N
1570351235.5,286047001.1,N
1570351255.3,286046998.8,N
1570351275.2,286046999.0,N
1570351295.0,286047001.1,N
1570351295.9,286047001.1,N
1570351315.8,286046998.6,N
1570351335.8,286046996.5,N
1570351355.6,286046997.4,N
1570351375.5,286046997.4,N
1570351395.3,286046997.6,N
1570351415.1,286046993.9,Y
1570351435.9,286046995.7,P
1570351455.7,286046998.0,N
1570351475.6,286047002.6,N
1570351495.4,286047007.0,N
1570351515.2,286047007.4,N
1570351535.1,286047004.3,N
1570351536.0,286047004.3,N
1570351555.8,286047002.1,N
1570351575.7,286047002.1,N
1570351595.0,286047001.5,N
1570351595.9,286047001.5,N
1570351615.8,286047002.0,N
1570351635.6,286047001.4,N
1570351655.4,286047001.8,N
1570351675.3,286046999.7,N
1570351695.1,286047000.6,N
1570351715.8,286047000.5,N
1570351735.1,286046998.3,N
1570351755.9,286046998.8,N
1570351775.7,286046998.8,N
1570351795.5,286046997.6,N
1570351815.4,286047004.3,N
1570351835.2,286047006.8,N
1570351855.1,286047006.3,N
1570351856.0,286047006.3,N
1570351875.8,286047002.9,N
1570351895.6,286047018.7,Y
1570351915.5,286047011.9,P
1570351935.3,286047008.8,N
1570351955.1,286047007.3,N
1570351975.9,286047005.5,N
1570351995.7,286047004.4,N
1570352015.5,286047004.4,N
1570352035.4,286047004.0,N
1570352055.2,286047004.1,N
1570352075.1,286047004.3,N
1570352076.0,286047004.3,N
1570352095.8,286047004.4,N
1570352115.6,286047002.1,N
1570352135.5,286047001.8,N
1570352155.3,286047004.2,N
1570352175.2,286047003.9,N
1570352195.9,286047003.2,N
1570352215.7,286047001.3,N
1570352235.6,286047001.9,N
1570352255.4,286047001.6,N
1570352275.2,286047004.3,N
1570352295.1,286047001.3,N
1570352296.0,286047001.3,N
1570352315.8,286047002.8,N
1570352335.7,286047000.5,N
1570352355.5,286047000.6,N
1570352375.3,286047000.5,N
1570352395.2,286047000.3,N
